Total_Precipitation_Accumulation
0.37 0.52 0.64 0.64 0.76 0.96 0.82 0.47 0.52 0.66 0.41 0.30 0.30 0.37 0.32 0.33 0.46 0.36 0.16 0.11 0.12 0.06
0.56 0.70 0.68 0.54 0.79 0.97 1.01 0.83 0.88 0.93 0.77 0.65 0.48 0.44 0.47 0.37 0.37 0.34 0.27 0.17 0.15 0.10
0.43 0.68 1.03 1.16 1.05 0.76 0.83 0.99 1.08 1.08 0.99 0.93 0.75 0.56 0.47 0.42 0.36 0.31 0.22 0.16 0.07 0.04
0.42 0.46 0.66 0.82 1.09 1.34 1.01 0.65 0.76 1.10 1.10 0.89 0.84 0.68 0.54 0.47 0.42 0.33 0.26 0.22 0.18 0.11
0.43 0.54 0.76 0.79 0.71 0.80 1.09 1.60 1.52 1.12 1.29 1.49 1.16 0.86 0.84 0.75 0.53 0.43 0.42 0.31 0.22 0.23
0.19 0.32 0.44 0.53 0.54 0.54 0.69 0.94 1.58 2.07 1.95 1.73 1.72 1.89 1.62 1.09 1.09 0.96 0.62 0.53 0.45 0.33
0.14 0.13 0.17 0.23 0.23 0.27 0.36 0.51 0.80 1.52 1.86 2.14 2.22 2.09 1.99 1.92 1.63 1.41 1.39 1.28 1.15 1.00
0.13 0.10 0.09 0.09 0.11 0.11 0.18 0.28 0.44 0.58 0.71 1.11 1.82 2.26 2.18 1.96 1.75 1.49 0.93 0.68 0.70 0.73
0.10 0.07 0.07 0.06 0.05 0.06 0.04 0.10 0.22 0.41 0.46 0.52 0.69 0.95 1.02 1.33 1.78 2.05 1.98 1.54 1.21 1.21
0.09 0.10 0.06 0.09 0.06 0.04 0.11 0.07 0.03 0.06 0.13 0.27 0.37 0.74 0.69 0.64 0.54 0.74 0.90 0.89 0.87 0.82
0.09 0.08 0.07 0.06 0.07 0.08 0.03 0.07 0.11 0.06 0.02 0.05 0.12 0.34 0.36 0.52 0.47 0.43 0.54 0.67 0.86 0.90
0.09 0.08 0.06 0.06 0.07 0.06 0.06 0.03 0.02 0.04 0.05 0.05 0.04 0.08 0.09 0.18 0.14 0.19 0.24 0.31 0.41 0.57
0.04 0.05 0.04 0.03 0.03 0.04 0.04 0.02 0.01 0.01 0.00 0.02 0.03 0.08 0.05 0.05 0.01 0.01 0.04 0.09 0.16 0.36
0.02 0.02 0.02 0.01 0.01 0.01 0.01 0.01 0.01 0.00 0.01 0.01 0.01 0.01 0.02 0.02 0.01 0.01 0.01 0.02 0.03 0.08